User: anonymous   Login
Location: Unspecified
(0.0000°N, 0.0000°E)
Time: 01:02:11
(UTC+00:00)
Language:

TBA - TO BE ASSIGNED - Orbit

View from above orbital plane
View from above orbital plane
View from above satellite
View from above satellite

Ground track
Ground track

The orbit is defined by the following mean orbital elements,

1 68889U          26145.58335647 +.00000000 +00000-0 -46918-1 0 00001
2 68889  51.8862 351.9663 0003534 205.3522 285.8243 15.26358074    01
Epoch (UTC): 25 May 2026 14:00:01
Eccentricity: 0.0003534
inclination: 51.8862°
perigee height: 484 km
apogee height: 489 km
right ascension of ascending node: 351.9663°
argument of perigee: 205.3522°
revolutions per day: 15.26358074
mean anomaly at epoch: 285.8243°

The dashed part of the orbit path shows where the satellite is in the earth's shadow,  

DLR